Location: Newark
(33.6439°N, 114.9881°W)
Time: 02:38:46
(UTC+00:00)

Transit 2A Rocket - Pass Details

Date: 23 August 2019
Orbit: 594 x 909 km, 66.7° (Epoch: 23 October)

Event Time Altitude Azimuth Distance (km) Brightness Sun altitude
Rises 10:59:13 0° 348° (NNW) 2,966 8.3 -25.1°
Reaches altitude 10° 11:02:02 10° 4° (N) 2,008 7.6 -24.6°
Maximum altitude 11:05:29 21° 54° (NE) 1,363 7.1 -24.0°
Drops below altitude 10° 11:08:49 10° 105° (ESE) 1,931 7.6 -23.4°
Sets 11:11:27 0° 122° (ESE) 2,820 8.3 -23.0°
